Skip Page Navigation
NASA JPL Caltech
NASA Logo - Jet Propulsion Laboratory + View the NASA Portal
+ Center for Near-Earth Object Studies
JPL Home Earth Solar System Stars & Galaxies Technology
JPL Solar System Dynamics
BODIES ORBITS EPHEMERIDES TOOLS PHYSICAL DATA DISCOVERY FAQ SITE MAP
IMPORTANT: The SSD Announcement email list is now available. Major changes are coming in the near future, including possible hostname and/or URL changes. To be notified of such changes, subscribe to this email list.

Please visit this page for more details.


JPL Small-Body Database Browser
Search: [ help ]  
193535 (2000 YS109)
Classification: Jupiter Trojan          SPK-ID: 2193535
Ephemeris | Orbit Diagram | Orbital Elements | Mission Design | Physical Parameters | Discovery Circumstances ]

[ show orbit diagram ]
Orbital Elements at Epoch 2458600.5 (2019-Apr-27.0) TDB
Reference: JPL 17 (heliocentric ecliptic J2000)
 Element Value Uncertainty (1-sigma)   Units 
e .07681079362129582 6.2153e-08  
a 5.170754546355525 1.6791e-07 au
q 4.773584786029033 3.0239e-07 au
i 10.32721537961259 6.4354e-06 deg
node 306.52635473 3.2281e-05 deg
peri 179.9801136491623 6.0372e-05 deg
M 182.5495264671619 5.6171e-05 deg
tp 2460717.417691580743
(2025-Feb-10.91769158)
0.00074922 TDB
period 4294.665175001852
11.76
0.0002092
5.728e-07
d
yr
n .08382492821453649 4.0831e-09 deg/d
Q 5.567924306682016 1.8081e-07 au
  Orbit Determination Parameters
   # obs. used (total)      310  
   data-arc span      10396 days (28.46 yr)  
   first obs. used      1991-03-18  
   last obs. used      2019-09-03  
   planetary ephem.      DE431  
   SB-pert. ephem.      SB431-N16  
   condition code      0  
   norm. resid. RMS      .57882  
   source      ORB  
   producer      Otto Matic  
   solution date      2019-Sep-24 03:56:08  

Additional Information
 Earth MOID = 3.78924 au 
 Jupiter MOID = .443592 au 
 T_jup = 2.962 
[ show covariance matrix ]

Ephemeris | Orbit Diagram | Orbital Elements | Mission Design | Physical Parameters | Discovery Circumstances ]

Physical Parameter Table
Parameter Symbol Value Units Sigma Reference Notes
absolute magnitude H 12.7   n/a MPO454343  

193535 (2000 YS109)          Discovered 2000-Dec-30 by LINEAR at Socorro
Reference: 20081113/Numbers.arcLast Updated: 2008-11-17

Alternate Designations
 2000 YS109 = 1991 FA5 = 2002 CK129 
Ephemeris | Orbit Diagram | Orbital Elements | Mission Design | Physical Parameters | Discovery Circumstances ]
ABOUT SSD CREDITS/AWARDS PRIVACY/COPYRIGHT GLOSSARY LINKS
FirstGov 2019-Oct-19 16:09 UT
(server date/time)  
NASA Home Page
Site Manager:   Ryan S. Park
Webmaster  Alan B. Chamberlin